Weather reports worldwide

Advertisment
Chania/Souda, Greece (16746): temperature & dewpoint: 15.05.2019 06:00:00 - 21.05.2019 06:00:00 (EEST)Chania/Souda, Greece (16746): wind speed: 15.05.2019 06:00:00 - 21.05.2019 06:00:00 (EEST)Chania/Souda, Greece (16746): wind direction: 15.05.2019 06:00:00 - 21.05.2019 06:00:00 (EEST)Chania/Souda, Greece (16746): reduced air pressure: 15.05.2019 06:00:00 - 21.05.2019 06:00:00 (EEST)Chania/Souda, Greece (16746): visibility: 15.05.2019 06:00:00 - 21.05.2019 06:00:00 (EEST)
Date & Time tt [°C] td [°C] ff [km/h] ff [kn] dd ppp [hPa] vv [km]
21.05.2019 06:00:00 21,6 12,1 0 0 N 1013,0 10
21.05.2019 05:00:00 21,0 11,0 0 0 N - 10
21.05.2019 04:00:00 21,0 11,0 13 7 SSE - 10
21.05.2019 03:00:00 19,0 15,6 0 0 N 1014,2 10
21.05.2019 02:00:00 19,0 15,0 9 5 SSE - 10
21.05.2019 01:00:00 18,0 18,0 9 5 WNW - 10
21.05.2019 00:00:00 18,8 18,1 16 9 WNW 1016,5 8
20.05.2019 23:00:00 19,0 18,0 15 8 NW - 8
20.05.2019 22:00:00 20,0 18,0 0 0 N - 10
20.05.2019 21:00:00 20,0 18,1 9 5 ENE 1012,9 10
20.05.2019 20:00:00 21,0 17,0 9 5 E - 10
20.05.2019 19:00:00 22,0 17,0 15 8 ENE - 10
20.05.2019 18:00:00 23,8 17,4 11 6 ENE 1012,6 10
20.05.2019 17:00:00 25,0 17,0 9 5 E - 10
20.05.2019 16:00:00 24,0 15,0 0 0 N - 10
20.05.2019 15:00:00 21,4 16,8 9 5 ENE 1013,4 10
20.05.2019 14:00:00 22,0 16,0 15 8 E - 10
20.05.2019 13:00:00 24,0 16,0 9 5 ESE - 10
20.05.2019 12:00:00 25,6 15,8 9 5 NW 1013,1 10
20.05.2019 11:00:00 25,0 18,0 5 3 SSE - 10
20.05.2019 10:00:00 24,0 15,0 0 0 N - 10
20.05.2019 09:00:00 22,2 13,6 8 4 ESE 1011,4 10
20.05.2019 08:00:00 19,0 15,0 8 4 ESE - 10
20.05.2019 07:00:00 17,0 15,0 11 6 E - 10
20.05.2019 06:00:00 17,2 15,2 11 6 SSE 1009,4 10
20.05.2019 05:00:00 17,0 14,0 8 4 SE - 10
20.05.2019 04:00:00 18,0 14,0 8 4 SSE - 10
20.05.2019 03:00:00 18,4 13,5 15 8 W 1008,9 10
20.05.2019 02:00:00 21,0 10,0 0 0 N - 10
20.05.2019 01:00:00 21,0 14,0 11 6 SE - 10
20.05.2019 00:00:00 20,4 13,5 0 0 N 1008,7 10
19.05.2019 23:00:00 20,0 15,0 8 4 W - 10
19.05.2019 22:00:00 20,0 15,0 11 6 W - 10
19.05.2019 21:00:00 21,4 16,1 15 8 NW 1007,5 10
19.05.2019 20:00:00 24,0 17,0 0 0 N - 10
19.05.2019 19:00:00 26,0 11,0 16 9 E - 10
19.05.2019 18:00:00 25,8 16,1 0 0 N 1007,8 10
19.05.2019 17:00:00 26,0 14,0 13 7 NW - 10
19.05.2019 16:00:00 26,0 16,0 0 0 N - 10
19.05.2019 15:00:00 28,0 15,7 15 8 NW 1009,1 10
19.05.2019 14:00:00 27,0 16,0 8 4 ENE - 10
19.05.2019 13:00:00 26,0 16,0 11 6 WNW - 10
19.05.2019 12:00:00 24,8 16,0 11 6 WNW 1009,9 10
19.05.2019 11:00:00 24,0 12,0 11 6 NNW - 10
19.05.2019 10:00:00 22,0 13,0 11 6 E - 10
19.05.2019 09:00:00 20,2 14,0 8 4 E 1009,8 10
19.05.2019 08:00:00 18,0 16,0 11 6 NE - 10
19.05.2019 07:00:00 17,0 16,0 9 5 ENE - 10
19.05.2019 06:00:00 16,8 16,1 11 6 ENE 1009,6 10
19.05.2019 05:00:00 17,0 16,0 9 5 E - 10
19.05.2019 04:00:00 17,0 16,0 11 6 E - 10
19.05.2019 03:00:00 17,2 15,2 9 5 E 1010,5 10
19.05.2019 02:00:00 17,0 16,0 8 4 E - 10
19.05.2019 01:00:00 18,0 15,0 9 5 E - 10
19.05.2019 00:00:00 17,6 14,9 0 0 N 1012,3 10
18.05.2019 23:00:00 18,0 15,0 0 0 N - 10
18.05.2019 22:00:00 18,0 16,0 0 0 N - 10
18.05.2019 21:00:00 18,2 15,9 11 6 WNW 1011,8 10
18.05.2019 20:00:00 21,0 16,0 11 6 W - 10
18.05.2019 19:00:00 23,0 15,0 8 4 ENE - 10
18.05.2019 18:00:00 23,6 15,3 11 6 E 1010,5 10
18.05.2019 17:00:00 24,0 13,0 15 8 ENE - 10
18.05.2019 16:00:00 24,0 13,0 15 8 E - 10
18.05.2019 15:00:00 24,2 12,9 15 8 E 1011,0 10
18.05.2019 14:00:00 24,0 13,0 13 7 ENE - 10
18.05.2019 13:00:00 23,0 13,0 15 8 NE - 10
18.05.2019 12:00:00 23,4 13,5 11 6 ENE 1010,9 10
18.05.2019 11:00:00 22,0 14,0 0 0 N - 10
18.05.2019 10:00:00 21,0 14,0 0 0 N - 10
18.05.2019 09:00:00 19,6 12,1 8 4 NW 1010,3 10
18.05.2019 08:00:00 16,0 12,0 0 0 N - 10
18.05.2019 07:00:00 13,0 11,0 0 0 N - 10
18.05.2019 06:00:00 12,6 11,5 5 3 W 1009,9 10
18.05.2019 05:00:00 13,0 12,0 8 4 WNW - 10
18.05.2019 04:00:00 13,0 12,0 8 4 W - 10
18.05.2019 03:00:00 13,4 12,3 11 6 WNW 1010,0 10
18.05.2019 02:00:00 13,0 12,0 16 9 WNW - 10
18.05.2019 01:00:00 14,0 12,0 15 8 WNW - 10
18.05.2019 00:00:00 14,2 12,4 13 7 WNW 1010,3 10
17.05.2019 23:00:00 14,0 12,0 16 9 W - 10
17.05.2019 22:00:00 15,0 13,0 15 8 W - 10
17.05.2019 21:00:00 15,4 12,9 15 8 W 1008,7 10
17.05.2019 20:00:00 17,0 12,0 18 10 W - 10
17.05.2019 19:00:00 18,0 12,0 24 13 W - 10
17.05.2019 18:00:00 19,0 11,8 22 12 W 1008,2 10
17.05.2019 17:00:00 20,0 13,0 22 12 WNW - 10
17.05.2019 16:00:00 20,0 15,0 18 10 W - 10
17.05.2019 15:00:00 19,2 15,1 13 7 WNW 1008,2 10
17.05.2019 14:00:00 17,0 16,0 9 5 N - 10
17.05.2019 13:00:00 21,0 15,0 11 6 NE - 10
17.05.2019 12:00:00 19,2 15,1 9 5 E 1007,9 10
17.05.2019 11:00:00 19,0 15,0 18 10 NE - 10
17.05.2019 10:00:00 19,0 14,0 13 7 NE - 10
17.05.2019 09:00:00 17,4 15,0 11 6 WNW 1008,0 10
17.05.2019 08:00:00 15,0 13,0 9 5 NW - 10
17.05.2019 07:00:00 14,0 14,0 0 0 N - 10
17.05.2019 06:00:00 14,4 13,0 0 0 N 1006,7 10
17.05.2019 05:00:00 14,0 13,0 8 4 ENE - 10
17.05.2019 04:00:00 14,0 13,0 0 0 N - 10
17.05.2019 03:00:00 14,4 12,6 8 4 E 1008,3 10
17.05.2019 02:00:00 14,0 12,0 0 0 N - 10
17.05.2019 01:00:00 14,0 12,0 0 0 N - 10
17.05.2019 00:00:00 14,6 11,6 8 4 WNW 1010,2 10
16.05.2019 23:00:00 15,0 12,0 9 5 W - 10
16.05.2019 22:00:00 16,0 14,0 18 10 NW - 10
16.05.2019 21:00:00 16,6 13,8 18 10 WNW 1010,0 10
16.05.2019 20:00:00 18,0 14,0 18 10 W - 10
16.05.2019 19:00:00 20,0 14,0 21 11 WNW - 10
16.05.2019 18:00:00 21,8 14,3 22 12 WNW 1009,1 10
16.05.2019 17:00:00 23,0 14,0 13 7 NW - 10
16.05.2019 16:00:00 23,0 15,0 16 9 WNW - 10
16.05.2019 15:00:00 22,8 13,2 18 10 NW 1009,8 10
16.05.2019 14:00:00 22,0 12,0 21 11 WNW - 10
16.05.2019 13:00:00 22,0 14,0 21 11 WNW - 10
16.05.2019 12:00:00 20,8 12,4 22 12 WNW 1010,3 10
16.05.2019 11:00:00 20,0 11,0 22 12 WNW - 10
16.05.2019 10:00:00 18,0 12,0 21 11 W - 10
16.05.2019 09:00:00 16,8 12,5 24 13 W 1010,2 10
16.05.2019 08:00:00 15,0 13,0 15 8 W - 10
16.05.2019 07:00:00 13,0 11,0 11 6 W - 10
16.05.2019 06:00:00 13,0 11,1 9 5 WSW 1010,0 10
16.05.2019 05:00:00 13,0 11,0 21 11 WSW - 10
16.05.2019 04:00:00 14,0 12,0 18 10 W - 10
16.05.2019 03:00:00 13,6 12,5 18 10 W 1010,6 10
16.05.2019 02:00:00 14,0 13,0 13 7 W - 10
16.05.2019 01:00:00 14,0 13,0 9 5 W - 10
16.05.2019 00:00:00 14,0 12,2 8 4 W 1010,7 10
15.05.2019 23:00:00 14,0 13,0 9 5 W - 10
15.05.2019 22:00:00 15,0 13,0 9 5 W - 10
15.05.2019 21:00:00 15,8 14,7 13 7 WNW 1010,0 10
15.05.2019 20:00:00 17,0 15,0 16 9 WNW - 10
15.05.2019 19:00:00 18,0 15,0 8 4 NNE - 10
15.05.2019 18:00:00 17,2 15,2 15 8 NE 1011,0 10
15.05.2019 17:00:00 18,0 15,0 22 12 WNW - 10
15.05.2019 16:00:00 19,0 13,0 18 10 ESE - 10
15.05.2019 15:00:00 18,6 12,2 13 7 ENE 1011,4 10
15.05.2019 14:00:00 19,0 14,0 9 5 WNW - 10
15.05.2019 13:00:00 18,0 12,0 9 5 WNW - 10
15.05.2019 12:00:00 17,8 12,8 8 4 - 1012,2 10
15.05.2019 11:00:00 17,0 13,0 8 4 SSW - 10
15.05.2019 10:00:00 17,0 13,0 11 6 WSW - 10
15.05.2019 09:00:00 16,0 13,5 9 5 WNW 1011,1 10
15.05.2019 08:00:00 15,0 13,0 0 0 N - 10
15.05.2019 07:00:00 15,0 13,0 11 6 WNW - 10
15.05.2019 06:00:00 14,2 12,8 9 5 WNW 1010,7 10

tt = temperature
td = dewpoint
ff = wind speed
dd = wind direction
ppp = reduced air pressure
vv = visibility

Next stations